Location: Unspecified
(0.0000°N, 0.0000°E)
Time: 03:39:47
(UTC+00:00)

CZ-3B DEB - Visible Passes

Search period start: 18 February 2026 00:00
Search period end: 28 February 2026 00:00
Orbit: 759 x 41761 km, 26.5° (Epoch: 20 July)

Date Brightness Start Highest point End Pass type
(mag) Time Alt. Az. Time Alt. Az. Time Alt. Az.
18 Feb ? 23:14:58 10° NW 02:02:58 79° NNW 11:24:40 10° ESE visible
20 Feb ? 00:48:40 10° WNW 02:41:13 59° WNW 08:31:53 10° W visible
21 Feb ? 02:29:22 10° WNW 04:00:40 35° WNW 07:36:50 10° W visible
21 Feb ? 23:06:42 10° E 00:37:56 16° ESE 01:37:14 10° ESE visible
22 Feb ? 05:23:57 12° WNW 05:23:57 12° WNW 06:12:23 10° W visible
22 Feb ? 21:56:27 10° E 01:59:03 39° ESE 03:39:34 10° ESE visible
23 Feb ? 20:59:44 10° E 03:11:32 61° SE 05:19:07 10° SE visible
24 Feb ? 18:43:34 10° NW 18:53:13 29° NNE 06:52:44 10° SE visible
25 Feb ? 20:12:43 10° NW 20:35:37 42° NNE 08:23:50 10° SE visible
26 Feb ? 21:42:30 10° NW 01:56:23 88° NNW 09:53:44 10° ESE visible
